Weather History for KMNM - June, 2012

Change the Weather History Date:

Friday, June 15, 2012

  Actual Average Record
Temperature  
Mean Temperature 69 °F -  
Max Temperature 80 °F 76 °F 95 °F (1988)
Min Temperature 60 °F 55 °F 38 °F (1948)
Cooling Degree Days 4    
Growing Degree Days 19 (Base 50)    
Moisture  
Dew Point 53 °F    
Average Humidity 54    
Maximum Humidity 72    
Minimum Humidity 40    
Precipitation  
Precipitation 0.00 in - - ()
Sea Level Pressure  
Sea Level Pressure 30.01 in    
Wind  
Wind Speed 10 mph (South)    
Max Wind Speed 20 mph    
Max Gust Speed 30 mph    
Visibility 10 miles    
Events      
Averages and records for this station are not official NWS values.
T = Trace of Precipitation, MM = Missing Value Source: NWS Daily Summary

Daily Weather History Graph

Daily Weather History Graph

Search for Another Location

Airport or City:

Trip Planner

Search our weather history database for the weather conditions in past years. The results will help you decide how hot, cold, wet, or windy it might be!

Date:

Astronomy

Jun. 15, 2012 Rise Set
Actual Time 5:02 AM CDT 8:39 PM CDT
Civil Twilight 4:25 AM CDT 9:17 PM CDT
Nautical Twilight 3:35 AM CDT 10:07 PM CDT
Astronomical Twilight 2:29 AM CDT 11:13 PM CDT
Moon 2:23 AM CDT (6/15) 5:14 PM CDT (6/15)
Length of Visible Light 16h 52m
Length of Day
15h 37m
Waning Crescent, 13% of the Moon is Illuminated
Jun 15
Waning Crescent
Jun 19
New
Jun 26
First Quarter
Jul 3
Full
Jul 10
Last Quarter

Hourly Weather History & Observations

Time (CDT) Temp. Dew Point Humidity Pressure Visibility Wind Dir Wind Speed Gust Speed Precip Events Conditions
12:15 AM 68.0 °F 42.8 °F 40% 29.96 in 10.0 mi SSW 15.0 mph 26.5 mph N/A   Clear
12:35 AM 68.0 °F 44.6 °F 43% 29.95 in 10.0 mi SSW 16.1 mph 21.9 mph N/A   Clear
12:55 AM 68.0 °F 46.4 °F 46% 29.94 in 10.0 mi SSW 12.7 mph 25.3 mph N/A   Scattered Clouds
1:15 AM 69.8 °F 46.4 °F 43% 29.93 in 10.0 mi SSW 19.6 mph 29.9 mph N/A   Scattered Clouds
1:35 AM 69.8 °F 44.6 °F 40% 29.94 in 10.0 mi SW 15.0 mph 23.0 mph N/A   Scattered Clouds
2:15 AM 69.8 °F 46.4 °F 43% 29.96 in 10.0 mi SW 12.7 mph 19.6 mph N/A   Scattered Clouds
2:35 AM 69.8 °F 46.4 °F 43% 29.98 in 10.0 mi WSW 5.8 mph - N/A   Clear
2:55 AM 69.8 °F 46.4 °F 43% 29.99 in 10.0 mi West 4.6 mph - N/A   Clear
3:15 AM 69.8 °F 46.4 °F 43% 29.99 in 10.0 mi Calm Calm - N/A   Clear
3:35 AM 66.2 °F 48.2 °F 52% 29.98 in 10.0 mi South 5.8 mph - N/A   Clear
3:55 AM 66.2 °F 48.2 °F 52% 29.98 in 10.0 mi South 5.8 mph - N/A   Clear
4:15 AM 66.2 °F 48.2 °F 52% 29.98 in 10.0 mi SSE 8.1 mph - N/A   Clear
4:35 AM 64.4 °F 50.0 °F 59% 29.98 in 10.0 mi SE 5.8 mph - N/A   Clear
4:55 AM 64.4 °F 48.2 °F 56% 29.99 in 10.0 mi NE 4.6 mph - N/A   Clear
5:15 AM 64.4 °F 50.0 °F 59% 30.01 in 10.0 mi Calm Calm - N/A   Clear
5:35 AM 60.8 °F 51.8 °F 72% 30.00 in 10.0 mi ESE 3.5 mph - N/A   Clear
5:55 AM 62.6 °F 53.6 °F 72% 30.01 in 10.0 mi SE 3.5 mph - N/A   Clear
6:15 AM 64.4 °F 53.6 °F 68% 30.02 in 10.0 mi Calm Calm - N/A   Clear
6:35 AM 64.4 °F 53.6 °F 68% 30.03 in 10.0 mi SSE 3.5 mph - N/A   Partly Cloudy
6:55 AM 64.4 °F 53.6 °F 68% 30.03 in 10.0 mi SSE 5.8 mph - N/A   Scattered Clouds
7:15 AM 64.4 °F 53.6 °F 68% 30.03 in 10.0 mi SSE 6.9 mph - N/A   Partly Cloudy
7:35 AM 64.4 °F 53.6 °F 68% 30.03 in 10.0 mi South 5.8 mph - N/A   Clear
7:55 AM 64.4 °F 53.6 °F 68% 30.04 in 10.0 mi South 5.8 mph - N/A   Clear
8:15 AM 66.2 °F 53.6 °F 64% 30.04 in 10.0 mi South 5.8 mph - N/A   Clear
8:35 AM 66.2 °F 53.6 °F 64% 30.04 in 10.0 mi South 5.8 mph - N/A   Clear
8:55 AM 66.2 °F 55.4 °F 68% 30.04 in 10.0 mi South 8.1 mph - N/A   Clear
9:15 AM 66.2 °F 55.4 °F 68% 30.04 in 10.0 mi South 8.1 mph - N/A   Clear
9:35 AM 68.0 °F 55.4 °F 64% 30.04 in 10.0 mi South 8.1 mph - N/A   Clear
9:55 AM 68.0 °F 57.2 °F 68% 30.04 in 10.0 mi South 8.1 mph - N/A   Clear
10:15 AM 68.0 °F 57.2 °F 68% 30.03 in 10.0 mi SSE 10.4 mph - N/A   Clear
10:35 AM 68.0 °F 57.2 °F 68% 30.03 in 10.0 mi SSE 9.2 mph - N/A   Clear
10:55 AM 69.8 °F 57.2 °F 64% 30.04 in 10.0 mi South 9.2 mph - N/A   Clear
11:15 AM 69.8 °F 57.2 °F 64% 30.05 in 10.0 mi SSE 8.1 mph - N/A   Clear
11:35 AM 71.6 °F 59.0 °F 64% 30.04 in 10.0 mi South 11.5 mph - N/A   Clear
11:55 AM 73.4 °F 60.8 °F 65% 30.04 in 5.0 mi South 9.2 mph - N/A   Clear
12:15 PM 73.4 °F 59.0 °F 61% 30.05 in 10.0 mi South 9.2 mph - N/A   Clear
12:35 PM 73.4 °F 59.0 °F 61% 30.04 in 10.0 mi SSE 8.1 mph - N/A   Clear
12:55 PM 73.4 °F 60.8 °F 65% 30.04 in 10.0 mi SE 9.2 mph - N/A   Clear
1:15 PM 75.2 °F 60.8 °F 61% 30.04 in 10.0 mi SE 10.4 mph - N/A   Clear
1:35 PM 75.2 °F 60.8 °F 61% 30.04 in 10.0 mi SSE 11.5 mph - N/A   Clear
1:55 PM 78.8 °F 62.6 °F 57% 30.03 in 10.0 mi SE 10.4 mph - N/A   Clear
2:15 PM 78.8 °F 60.8 °F 54% 30.03 in 10.0 mi SSE 13.8 mph - N/A   Clear
2:35 PM 77.0 °F 60.8 °F 57% 30.03 in 9.0 mi SSE 11.5 mph - N/A   Clear
2:55 PM 78.8 °F 59.0 °F 51% 30.03 in 10.0 mi SSE 12.7 mph - N/A   Clear
3:15 PM 78.8 °F 57.2 °F 47% 30.02 in 10.0 mi SSE 10.4 mph 19.6 mph N/A   Clear
3:35 PM 78.8 °F 57.2 °F 47% 30.01 in 10.0 mi South 16.1 mph - N/A   Clear
3:55 PM 78.8 °F 57.2 °F 47% 30.01 in 10.0 mi South 15.0 mph 19.6 mph N/A   Clear
4:15 PM 78.8 °F 57.2 °F 47% 30.02 in 10.0 mi South 15.0 mph 23.0 mph N/A   Clear
4:35 PM 78.8 °F 57.2 °F 47% 30.02 in 10.0 mi South 13.8 mph 19.6 mph N/A   Clear
4:55 PM 77.0 °F 57.2 °F 50% 30.02 in 10.0 mi South 15.0 mph 23.0 mph N/A   Clear
5:15 PM 75.2 °F 57.2 °F 53% 30.01 in 10.0 mi South 11.5 mph 20.7 mph N/A   Clear
5:35 PM 75.2 °F 57.2 °F 53% 30.01 in 10.0 mi South 11.5 mph 18.4 mph N/A   Clear
5:55 PM 75.2 °F 55.4 °F 50% 30.01 in 10.0 mi South 15.0 mph - N/A   Clear
6:15 PM 75.2 °F 55.4 °F 50% 30.01 in 10.0 mi South 15.0 mph 18.4 mph N/A   Clear
6:35 PM 75.2 °F 55.4 °F 50% 30.01 in 10.0 mi South 11.5 mph 19.6 mph N/A   Clear
6:55 PM 75.2 °F 55.4 °F 50% 30.01 in 10.0 mi South 11.5 mph 16.1 mph N/A   Clear
7:15 PM 75.2 °F 55.4 °F 50% 30.01 in 10.0 mi South 8.1 mph - N/A   Clear
7:35 PM 73.4 °F 55.4 °F 53% 30.01 in 10.0 mi South 6.9 mph - N/A   Clear
7:55 PM 73.4 °F 53.6 °F 50% 30.01 in 10.0 mi South 4.6 mph - N/A   Clear
8:15 PM 75.2 °F 53.6 °F 47% 30.01 in 10.0 mi SSW 5.8 mph - N/A   Clear
8:35 PM 73.4 °F 51.8 °F 47% 30.01 in 10.0 mi South 8.1 mph - N/A   Scattered Clouds
8:55 PM 73.4 °F 51.8 °F 47% 30.01 in 10.0 mi SSW 5.8 mph - N/A   Scattered Clouds
9:35 PM 73.4 °F 48.2 °F 41% 30.02 in 10.0 mi SSW 6.9 mph - N/A   Scattered Clouds
9:55 PM 73.4 °F 48.2 °F 41% 30.03 in 10.0 mi SW 8.1 mph - N/A   Partly Cloudy
10:15 PM 71.6 °F 48.2 °F 43% 30.02 in 10.0 mi SSW 4.6 mph - N/A   Scattered Clouds
10:35 PM 71.6 °F 48.2 °F 43% 30.03 in 10.0 mi SSW 8.1 mph - N/A   Scattered Clouds
10:55 PM 71.6 °F 48.2 °F 43% 30.02 in 10.0 mi SSW 11.5 mph - N/A   Clear
11:15 PM 73.4 °F 48.2 °F 41% 30.02 in 10.0 mi SSW 10.4 mph - N/A   Partly Cloudy
11:35 PM 71.6 °F 48.2 °F 43% 30.02 in 10.0 mi SW 9.2 mph - N/A   Partly Cloudy
11:55 PM 71.6 °F 48.2 °F 43% 30.03 in 10.0 mi SW 8.1 mph - N/A   Partly Cloudy